DLH543 SKBO-EDDF

Flight info

Callsign DLH543
Flight time N/A
Altitude 37000
Route OSUSU4R KOVBU UW1 ENPUT UG431 ALCOT UL325 PJG UM576 MILOK M576 OBIKE/M084F370 M576 RKDIA DCT 25N055W 29N050W 34N040W 39N030W 43N020W DCT PASAS DCT SIVIR UN460 RIVAK/N0480F370 DCT AKEMO DCT GIGOT DCT OBATO UM163 TSU UN858 OQQAL DCT RANUX DCT VALEK DCT LUTAX DCT DIK T856 NIVNU T847 IMCOM IMCOM1D
Aircraft B789/H-SADFGHIJ1J2J3J4J5LOP1P2RWXYZ/LB1D1

Departure

Time 2026-04-30 21:11
Airport El Dorado International Airport (SKBO)

Arrival

Time N/A
Airport Frankfurt Main Airport (EDDF)
Time Latitude Longitude Altitude Speed Heading
2026-04-30 20:31 4.69900 -74.14021 8375 ft 0 kts 215°
2026-04-30 20:57 4.69910 -74.14013 8378 ft 3 kts 215°
2026-04-30 20:58 4.69943 -74.13990 8375 ft 3 kts 215°
2026-04-30 20:58 4.69957 -74.13980 8376 ft 2 kts 214°
2026-04-30 20:58 4.69972 -74.13972 8378 ft 3 kts 187°
2026-04-30 20:58 4.69981 -74.13971 8378 ft 3 kts 144°
2026-04-30 20:59 4.70001 -74.14001 8378 ft 3 kts 122°
2026-04-30 20:59 4.70006 -74.14009 8376 ft 0 kts 127°
2026-04-30 21:03 4.69997 -74.13997 8377 ft 6 kts 127°
2026-04-30 21:04 4.69962 -74.13953 8376 ft 11 kts 127°
2026-04-30 21:04 4.69935 -74.13888 8378 ft 6 kts 75°
2026-04-30 21:04 4.69987 -74.13874 8377 ft 6 kts 329°
2026-04-30 21:05 4.70028 -74.13923 8376 ft 13 kts 307°
2026-04-30 21:05 4.70102 -74.14017 8375 ft 21 kts 310°
2026-04-30 21:05 4.70183 -74.14120 8376 ft 20 kts 308°
2026-04-30 21:05 4.70262 -74.14223 8376 ft 17 kts 308°
2026-04-30 21:06 4.70332 -74.14312 8376 ft 16 kts 308°
2026-04-30 21:06 4.70394 -74.14392 8376 ft 13 kts 309°
2026-04-30 21:06 4.70447 -74.14455 8371 ft 11 kts 313°
2026-04-30 21:06 4.70501 -74.14469 8378 ft 7 kts
2026-04-30 21:07 4.70536 -74.14482 8377 ft 5 kts 321°
2026-04-30 21:07 4.70559 -74.14510 8375 ft 6 kts 309°
2026-04-30 21:07 4.70588 -74.14545 8378 ft 7 kts 308°
2026-04-30 21:07 4.70626 -74.14596 8375 ft 12 kts 306°
2026-04-30 21:08 4.70686 -74.14678 8376 ft 17 kts 306°
2026-04-30 21:08 4.70764 -74.14785 8376 ft 20 kts 306°
2026-04-30 21:08 4.70848 -74.14901 8375 ft 21 kts 306°
2026-04-30 21:08 4.70944 -74.15017 8376 ft 22 kts 310°
2026-04-30 21:09 4.71039 -74.15141 8377 ft 23 kts 303°
2026-04-30 21:09 4.71122 -74.15247 8376 ft 17 kts 309°
2026-04-30 21:09 4.71196 -74.15344 8376 ft 18 kts 301°
2026-04-30 21:09 4.71260 -74.15366 8375 ft 4 kts 32°
2026-04-30 21:10 4.71285 -74.15329 8378 ft 11 kts 66°
2026-04-30 21:10 4.71310 -74.15212 8374 ft 21 kts 79°
2026-04-30 21:10 4.71295 -74.15136 8374 ft 9 kts 133°
2026-04-30 21:10 4.71187 -74.15008 8371 ft 47 kts 128°
2026-04-30 21:11 4.70879 -74.14600 8374 ft 99 kts 127°
2026-04-30 21:11 4.70365 -74.13921 8374 ft 145 kts 127°
2026-04-30 21:11 4.69668 -74.13002 8377 ft 187 kts 128°
2026-04-30 21:11 4.68829 -74.11948 9013 ft 192 kts 132°
2026-04-30 21:12 4.68243 -74.10770 9573 ft 195 kts 92°
2026-04-30 21:12 4.68646 -74.09524 9956 ft 195 kts 55°
2026-04-30 21:12 4.69673 -74.08609 10345 ft 203 kts 30°
2026-04-30 21:12 4.71108 -74.08302 10447 ft 231 kts 360°
2026-04-30 21:13 4.72783 -74.08313 10628 ft 248 kts
2026-04-30 21:13 4.74435 -74.08008 11084 ft 246 kts 18°
2026-04-30 21:13 4.76059 -74.07452 11559 ft 245 kts 24°
2026-04-30 21:13 4.77669 -74.06832 12071 ft 249 kts 22°
2026-04-30 21:14 4.79320 -74.06252 12486 ft 259 kts 21°
2026-04-30 21:14 4.81127 -74.05653 12229 ft 290 kts 20°
2026-04-30 21:14 4.83144 -74.04986 12275 ft 319 kts 20°
2026-04-30 21:14 4.85335 -74.04247 12322 ft 346 kts 21°
2026-04-30 21:15 4.87691 -74.03445 12546 ft 363 kts 20°
2026-04-30 21:15 4.90082 -74.02637 13291 ft 365 kts 21°
2026-04-30 21:15 4.92414 -74.01849 13929 ft 368 kts 21°
2026-04-30 21:15 4.94860 -74.01019 14500 ft 372 kts 21°
2026-04-30 21:16 4.97331 -74.00181 15091 ft 376 kts 21°
2026-04-30 21:16 4.99829 -73.99335 15623 ft 381 kts 21°
2026-04-30 21:16 5.02359 -73.98521 16212 ft 385 kts 16°
2026-04-30 21:16 5.04984 -73.97908 16716 ft 388 kts 17°
2026-04-30 21:17 5.07622 -73.97225 16980 ft 399 kts 17°
2026-04-30 21:17 5.10310 -73.96534 16980 ft 396 kts 17°
2026-04-30 21:17 5.12973 -73.95882 16949 ft 392 kts 17°
2026-04-30 21:17 5.15609 -73.95238 16960 ft 390 kts 17°
2026-04-30 21:18 5.18247 -73.94576 16982 ft 393 kts 17°
2026-04-30 21:18 5.20902 -73.93909 17619 ft 393 kts 17°
2026-04-30 21:18 5.23564 -73.93248 18238 ft 396 kts 18°
2026-04-30 21:18 5.26247 -73.92582 18675 ft 399 kts 17°
2026-04-30 21:19 5.28955 -73.91907 19117 ft 402 kts 17°
2026-04-30 21:19 5.31680 -73.91227 19584 ft 406 kts 17°
2026-04-30 21:19 5.34430 -73.90542 20040 ft 409 kts 17°
2026-04-30 21:19 5.37203 -73.89853 20492 ft 412 kts 17°
2026-04-30 21:20 5.39990 -73.89158 20885 ft 415 kts 17°
2026-04-30 21:20 5.42822 -73.88451 20941 ft 423 kts 17°
2026-04-30 21:20 5.45668 -73.87742 21341 ft 419 kts 16°
2026-04-30 21:20 5.47538 -73.87279 21672 ft 419 kts 17°
2026-04-30 21:21 5.50342 -73.86580 22656 ft 401 kts 16°
2026-04-30 21:21 5.52993 -73.85872 23558 ft 395 kts 23°
2026-04-30 21:21 5.57847 -73.83241 24132 ft 399 kts 31°
2026-04-30 21:22 5.60278 -73.81863 24463 ft 403 kts 31°
2026-04-30 21:22 5.67665 -73.77690 25509 ft 410 kts 31°
2026-04-30 21:23 5.70162 -73.76275 25823 ft 414 kts 31°
2026-04-30 21:23 5.72677 -73.74853 26178 ft 416 kts 31°
2026-04-30 21:23 5.77677 -73.72024 27320 ft 408 kts 30°
2026-04-30 21:24 5.80172 -73.70611 27524 ft 415 kts 30°
2026-04-30 21:24 5.82684 -73.69189 27979 ft 415 kts 29°
2026-04-30 21:24 5.85222 -73.67752 28193 ft 421 kts 29°
2026-04-30 21:24 5.87776 -73.66305 28606 ft 422 kts 29°
2026-04-30 21:25 5.92917 -73.63393 29468 ft 425 kts 28°
2026-04-30 21:25 5.95508 -73.61925 29815 ft 428 kts 28°
2026-04-30 21:25 5.98083 -73.60466 30548 ft 417 kts 28°
2026-04-30 21:26 6.03223 -73.57555 30761 ft 436 kts 28°
2026-04-30 21:26 6.05864 -73.56060 30773 ft 447 kts 28°
2026-04-30 21:27 6.11403 -73.52917 30825 ft 467 kts 28°
2026-04-30 21:27 6.17172 -73.49647 30864 ft 484 kts 28°
2026-04-30 21:28 6.23094 -73.46287 31090 ft 495 kts 28°
2026-04-30 21:28 6.26113 -73.44574 31358 ft 496 kts 27°
2026-04-30 21:28 6.32148 -73.41151 31792 ft 500 kts 27°
2026-04-30 21:29 6.35181 -73.39428 32047 ft 502 kts 27°
2026-04-30 21:29 6.44211 -73.34304 32735 ft 510 kts 27°
2026-04-30 21:30 6.50410 -73.30783 33290 ft 512 kts 27°
2026-04-30 21:31 6.59789 -73.25457 33838 ft 521 kts 27°
2026-04-30 21:31 6.66108 -73.21864 34393 ft 522 kts 26°
2026-04-30 21:32 6.72418 -73.18278 35005 ft 520 kts 26°
2026-04-30 21:32 6.75562 -73.16491 35288 ft 519 kts 26°
2026-04-30 21:32 6.78697 -73.14707 35596 ft 518 kts 26°
2026-04-30 21:32 6.81832 -73.12924 35888 ft 517 kts 26°